Vorticity
5 6 8 9 10 11 11 10 9 8 7 6 6 5 5 6 8 13 17 18 15 10 8 7 6 4 4 3 1 2 3 4 7 12 12 10 11 15 9 3 11 9 4 4 6 7 0 3 6 2 3 3 5 6 7 5 7 5 1 21 8 -11 6 6 8 9 3 8 9 8 7 9 10 9 8 8 11 11 13 9 2 6 8 8 6 5 7 6
3 4 4 5 7 9 10 11 11 10 10 8 7 7 6 5 5 7 10 15 19 17 12 8 8 6 5 3 2 2 1 3 4 12 18 12 13 12 5 6 12 9 8 7 6 8 1 1 4 1 3 3 3 5 6 2 5 0 -5 14 2 -10 7 2 0 4 3 5 5 8 7 7 9 9 8 7 8 7 8 7 8 10 6 7 8 5 6 6
6 5 4 4 4 5 6 8 10 10 11 10 10 9 8 7 6 6 5 8 13 18 19 13 10 8 7 5 3 3 2 2 3 8 12 11 10 10 10 11 12 10 8 7 7 8 2 2 3 -0 3 3 1 3 4 2 7 3 -5 10 10 0 5 4 4 7 7 5 4 8 7 7 7 8 9 7 6 6 8 7 10 11 5 8 11 10 7 5
9 8 7 6 5 4 4 5 6 8 9 10 11 11 10 9 8 7 6 6 6 10 17 19 16 11 9 7 4 2 2 2 3 2 3 11 11 6 10 12 15 11 7 7 7 8 3 3 3 3 3 0 3 1 2 5 2 2 -2 2 11 11 10 7 6 6 7 8 8 6 5 8 7 8 9 7 7 5 6 6 8 8 4 9 12 12 9 6
8 8 9 9 8 7 5 4 4 5 6 8 9 10 10 11 10 9 8 7 7 6 9 15 19 18 13 10 7 3 2 1 6 8 5 10 11 7 6 7 14 13 8 7 6 7 5 6 3 3 3 1 4 -1 4 4 -9 1 4 -6 0 5 5 4 4 6 8 10 7 5 5 7 6 7 8 8 8 6 7 4 7 9 6 10 10 11 12 10
7 7 7 8 9 9 8 7 5 4 5 6 6 8 9 9 10 10 10 9 9 8 6 8 12 18 19 15 10 6 4 -1 0 7 8 9 8 9 9 5 9 12 11 8 6 7 5 7 4 5 3 0 4 -3 -0 -6 -15 3 3 -1 6 0 -0 2 4 8 11 10 5 6 6 6 8 7 8 10 4 3 9 6 7 10 7 9 10 11 12 11
7 8 7 7 7 8 9 9 8 6 5 5 5 6 6 8 8 8 9 10 10 10 9 8 7 10 17 20 17 11 7 1 -1 0 3 8 7 6 9 9 8 9 14 12 8 6 5 6 5 8 2 1 6 -3 -0 -4 -7 0 -9 4 15 2 4 3 1 5 7 7 6 11 9 5 9 9 9 10 4 1 8 9 10 11 6 7 10 12 11 12
5 6 7 7 7 7 8 9 9 8 7 6 5 4 5 5 7 7 8 8 9 9 10 10 9 7 8 14 19 19 14 6 4 2 -2 2 5 5 6 9 10 9 13 15 12 8 6 5 4 8 3 2 5 -3 4 3 7 17 4 7 3 -6 10 8 1 5 9 8 3 7 9 6 9 11 10 10 6 5 9 8 11 14 7 6 9 11 12 11
3 4 5 6 7 7 7 7 8 9 9 8 6 5 5 4 4 5 6 8 8 8 8 9 10 10 8 8 11 18 23 18 9 5 1 0 0 3 4 5 9 10 12 13 14 12 7 6 4 6 5 3 3 -3 0 -0 7 13 2 10 11 -0 6 7 8 14 11 5 7 9 7 8 9 7 8 9 7 6 10 8 9 14 8 7 9 10 12 11
4 3 4 5 6 6 6 6 6 7 8 8 8 7 6 5 5 4 4 6 7 8 7 7 8 9 10 9 8 11 18 24 21 10 4 4 1 1 3 5 6 8 11 12 14 14 9 8 5 4 5 3 2 -1 4 14 14 -1 -10 6 17 12 10 3 -0 12 11 2 13 15 5 7 7 7 8 9 8 5 10 10 9 12 9 9 9 9 9 11
3 2 3 4 6 7 6 6 6 6 6 7 7 8 8 7 7 6 5 4 4 6 6 7 8 7 8 9 10 10 9 16 25 20 9 5 4 2 0 2 5 6 8 11 13 15 12 10 5 3 5 3 3 1 3 6 -9 -11 10 9 -5 6 22 11 -6 11 22 6 9 11 5 8 5 5 8 6 7 7 11 11 8 9 10 11 8 7 8 10
3 2 3 3 4 6 7 7 6 6 5 6 6 6 7 7 8 7 7 7 6 5 5 6 7 7 8 7 9 10 9 11 16 21 20 12 5 5 4 1 3 4 5 8 12 14 14 12 8 3 3 4 4 3 8 6 -13 -6 25 14 -12 -4 11 6 -1 13 20 5 7 13 6 6 5 4 6 7 8 9 10 11 10 8 8 11 11 8 9 13
5 5 4 4 4 5 6 7 7 7 6 5 5 5 6 6 7 7 6 7 7 7 6 6 5 6 7 8 9 7 7 11 11 14 20 21 14 6 6 3 1 3 4 7 9 13 14 11 8 6 4 4 4 2 3 10 8 1 4 3 -1 5 4 -1 4 10 14 7 0 6 9 5 6 4 3 7 9 9 8 7 11 11 6 10 12 8 10 15
5 5 5 5 5 5 5 6 7 8 8 7 6 5 5 5 5 6 6 6 7 7 7 7 6 6 6 6 9 6 5 9 10 10 12 21 24 15 8 5 3 1 3 5 6 10 15 12 7 7 5 2 6 7 -4 -1 10 0 -10 -0 8 11 7 6 14 11 13 20 7 3 12 8 4 4 3 6 7 8 8 6 11 12 8 8 9 7 9 13
4 4 4 4 4 4 4 4 5 6 7 8 8 7 6 5 4 5 5 6 6 6 6 7 7 7 7 5 6 7 7 8 9 10 8 12 22 24 15 7 5 3 2 4 5 7 12 13 8 7 8 4 4 7 0 -1 9 7 -5 0 5 3 8 12 18 14 4 11 16 12 9 3 6 6 1 4 6 5 6 7 9 11 10 10 9 5 5 9
7 5 4 4 3 3 3 3 3 3 4 5 7 8 8 7 5 5 5 5 5 6 7 7 6 7 7 7 7 6 8 8 7 8 9 8 13 22 23 15 8 4 3 2 4 6 8 12 11 9 9 7 6 5 5 1 2 7 -0 3 7 -2 3 5 3 12 5 -3 4 9 6 5 12 9 3 5 4 4 6 6 7 10 11 12 12 7 3 6
9 8 8 7 6 5 4 4 3 3 2 2 3 5 6 8 8 7 5 5 5 5 6 6 6 7 7 9 9 8 9 7 7 7 8 9 8 14 23 24 16 7 5 3 3 5 5 8 11 12 8 7 10 7 7 4 1 9 4 6 16 4 -2 -0 2 9 6 2 3 3 3 3 8 10 8 7 4 4 5 5 6 7 10 11 12 10 5 5
8 8 8 8 8 8 7 7 6 6 5 4 3 3 3 5 6 7 7 7 6 5 5 6 7 7 8 11 9 7 9 7 7 8 7 9 9 9 15 22 21 13 6 4 4 4 4 7 8 11 9 8 14 10 7 10 10 14 9 2 6 8 5 4 13 9 2 12 12 5 5 -0 2 7 6 8 7 6 4 3 6 6 9 9 9 10 8 7
7 8 8 8 8 8 8 8 8 8 8 7 6 5 4 3 3 5 8 7 6 6 5 6 8 7 5 7 6 6 9 6 4 7 7 7 8 8 9 13 21 21 14 6 4 4 3 5 5 7 10 10 12 9 5 12 17 14 7 0 -6 1 8 7 12 2 -4 10 8 7 10 0 2 3 -1 8 10 6 5 3 4 6 8 8 8 10 8 7
5 6 7 7 8 8 8 7 7 7 7 7 8 8 7 6 4 4 5 6 6 6 6 7 8 6 5 6 5 6 8 7 6 6 6 7 8 9 9 9 13 21 23 14 7 6 3 3 3 5 10 11 10 10 8 8 14 7 -1 4 0 -1 7 13 22 8 -9 2 9 11 9 2 6 -2 -8 9 12 6 6 3 5 6 7 8 8 9 8 6
6 5 5 5 6 8 8 7 7 7 6 7 6 7 8 8 7 7 6 5 4 5 6 6 6 6 6 6 6 7 8 9 8 7 6 6 7 8 10 10 9 15 24 22 12 7 4 2 2 4 9 12 8 8 11 6 5 -1 -5 4 4 2 2 -1 15 17 -8 -6 8 12 9 6 6 -1 -0 11 10 6 6 5 7 7 6 8 7 8 9 8
5 5 4 4 3 4 6 6 7 7 6 6 5 5 6 7 7 8 8 7 5 5 7 7 7 8 6 4 7 7 8 9 7 7 8 7 7 8 8 9 10 11 16 20 16 10 6 4 4 4 6 11 12 8 7 6 7 1 -5 3 2 4 8 -2 6 13 -10 -18 -3 6 10 11 5 5 10 10 6 5 7 7 6 6 8 8 7 7 7 8
4 4 4 4 3 3 3 4 5 6 7 7 6 6 5 5 6 6 7 9 8 6 6 7 7 8 7 6 8 6 8 10 7 6 8 7 8 7 6 8 11 11 9 12 17 16 14 11 7 6 5 6 11 13 6 2 9 7 1 5 3 -1 6 8 14 18 -0 -10 3 11 15 16 9 7 8 6 4 3 5 8 7 8 9 6 6 7 6 6
5 5 5 5 5 5 5 5 6 6 6 7 7 7 6 6 5 5 5 7 10 8 6 7 7 8 9 6 5 6 9 7 5 7 8 9 7 4 6 8 7 8 10 12 13 15 21 20 10 6 7 5 7 12 11 6 5 7 6 2 -1 0 6 9 13 18 9 1 9 15 16 18 10 4 6 6 4 2 3 5 6 9 8 5 5 8 7 5
4 5 6 6 6 8 7 6 7 7 6 7 7 6 7 7 5 6 5 5 8 8 5 6 7 8 8 8 8 9 7 4 7 8 8 10 8 5 8 7 5 8 10 12 11 10 16 21 14 6 5 5 6 7 11 14 6 4 9 1 -7 0 9 6 1 7 10 4 4 4 1 5 6 4 6 7 4 1 4 6 7 8 6 5 5 5 7 6
9 8 7 5 4 7 7 5 6 7 6 6 7 7 6 7 6 6 6 6 8 8 6 7 9 9 10 11 11 9 6 8 10 6 4 9 10 9 8 7 9 10 9 10 10 8 11 16 16 13 8 4 5 5 7 14 10 3 7 6 -0 0 3 3 2 6 5 -7 -7 4 9 11 15 13 7 5 6 5 5 6 7 7 3 3 5 5 7 7
13 13 12 9 5 5 6 4 4 5 6 5 6 7 6 7 7 6 6 6 5 7 8 7 7 8 8 7 7 8 8 10 9 5 6 9 10 8 7 8 8 9 9 7 5 9 14 14 13 14 13 6 2 4 7 11 11 8 7 6 6 3 -1 -1 1 7 7 -6 -5 17 26 17 15 16 9 6 8 8 7 5 5 7 5 3 4 6 7 6
9 11 13 13 10 7 6 4 4 4 4 4 4 5 5 5 6 6 6 5 5 7 9 12 12 8 5 4 5 6 6 8 9 8 7 6 6 6 7 9 9 9 9 5 5 12 15 15 12 11 15 15 7 4 8 9 8 11 10 7 6 7 2 -2 -1 3 7 2 -1 5 4 -3 8 20 13 8 10 9 5 2 4 4 5 7 5 4 4 4
5 7 9 12 13 11 7 4 3 3 3 4 4 3 4 4 5 6 6 5 10 9 5 9 12 10 10 10 11 9 5 8 11 9 7 6 6 7 9 11 9 7 6 5 7 8 9 16 13 6 13 21 15 8 7 6 5 10 13 7 2 6 5 -0 2 3 1 3 1 -0 -3 -6 10 24 13 2 5 11 7 4 6 4 4 8 6 4 3 3
7 7 5 7 9 9 8 4 1 1 2 3 3 3 3 3 5 6 4 4 10 9 2 6 7 6 9 10 10 10 9 9 8 5 7 9 8 5 5 7 6 6 6 5 7 7 5 9 10 8 11 14 14 11 6 5 7 10 14 10 -0 3 6 2 6 8 6 9 4 1 5 5 8 19 23 13 1 1 7 8 9 6 7 8 4 4 5 5
8 10 10 9 7 6 6 5 5 5 4 4 5 4 4 5 5 3 3 7 10 5 2 5 7 7 9 8 6 6 8 10 6 4 7 8 7 5 4 6 6 7 7 5 9 12 7 3 6 11 13 10 8 11 10 7 10 7 8 10 2 2 7 5 7 10 9 10 6 1 5 6 5 10 25 28 13 3 3 7 13 13 10 7 4 6 9 7
2 4 8 10 10 11 8 5 7 7 4 7 6 5 8 6 1 3 8 9 7 7 8 6 4 5 6 8 9 6 6 8 7 7 10 10 8 8 7 8 9 8 10 12 14 14 10 9 10 10 17 16 6 12 17 7 5 8 6 7 5 4 7 7 8 9 7 7 10 10 8 6 3 1 2 4 10 16 10 6 12 11 8 8 8 10 10 8
2 2 3 4 7 11 11 9 9 8 7 7 6 8 9 -0 -3 8 12 9 6 9 11 8 6 8 6 7 11 10 8 7 7 6 7 8 8 9 8 7 6 4 5 7 8 10 9 9 8 6 12 15 9 15 21 9 5 11 8 1 0 0 0 3 5 5 5 6 9 13 11 8 5 5 -1 -7 6 23 18 8 4 3 8 12 11 10 8 7
7 5 4 6 6 6 8 9 10 11 9 6 6 8 2 -6 1 12 9 9 12 6 3 4 7 9 9 8 8 11 12 7 7 8 6 5 4 4 6 7 7 6 7 6 2 6 7 4 8 9 6 10 13 13 16 19 18 16 12 7 5 2 -2 -0 1 2 7 5 5 12 12 5 4 10 11 10 20 21 11 15 17 11 13 11 6 5 6 9
9 8 7 8 8 7 9 8 9 10 7 7 7 2 -5 -2 10 11 6 10 12 8 7 8 7 7 10 9 5 7 13 12 8 7 8 9 6 6 6 7 10 10 9 8 5 6 5 3 9 12 10 10 11 13 17 23 22 18 14 10 8 4 -1 -0 -3 -2 10 10 7 13 13 9 8 9 8 10 17 7 3 25 26 11 16 18 12 8 4 9
9 10 10 9 8 8 8 10 12 10 8 9 3 -5 -1 9 12 8 7 8 6 6 8 7 6 6 6 9 7 4 9 14 12 8 9 9 5 7 8 7 8 9 8 5 4 7 7 10 13 9 9 9 5 9 15 19 21 23 20 11 7 5 4 7 -6 -13 5 12 10 10 7 10 11 9 11 10 9 4 8 22 10 0 23 27 11 5 4 8
9 9 11 10 9 8 10 13 14 12 12 10 0 -1 8 11 9 8 7 8 6 6 6 4 7 7 6 9 9 7 8 9 8 7 11 11 7 5 6 9 7 6 9 7 4 8 7 12 19 15 12 10 6 6 9 18 18 8 6 14 19 12 13 19 -2 -13 3 2 1 12 9 6 4 3 9 4 2 11 18 20 5 -4 10 14 8 4 -1 4
8 8 10 10 9 10 11 12 13 13 13 7 2 7 13 10 10 11 9 8 7 5 4 4 6 8 8 7 7 12 14 9 6 9 10 8 10 8 2 5 8 5 8 9 7 9 5 1 7 17 23 19 14 9 6 13 16 4 1 15 30 21 11 15 2 -3 12 -1 -11 4 8 10 11 5 6 4 9 18 8 4 10 -1 -14 -5 11 5 -1 14
8 8 10 10 10 11 10 12 14 11 7 4 5 13 17 16 16 14 12 10 7 6 5 4 6 7 5 6 10 18 21 17 13 11 8 4 6 10 6 3 6 7 7 6 8 9 7 -1 -10 1 25 25 9 5 6 8 15 24 15 -3 12 27 17 12 4 0 9 -3 -8 4 2 6 15 12 9 2 7 15 -8 -20 8 17 -0 1 15 5 -3 8
10 14 16 13 13 9 9 14 14 9 7 8 12 16 16 17 17 15 14 13 8 6 5 4 6 6 3 3 7 10 13 23 29 20 12 11 8 8 11 8 5 11 12 6 7 10 11 10 -3 -5 13 15 1 -2 8 11 9 23 25 -9 -18 10 28 30 16 8 12 -4 -12 5 8 2 3 11 22 9 0 12 3 -9 8 21 7 -3 12 17 2 -8
11 19 18 16 15 11 15 21 16 14 15 11 13 17 16 15 16 15 15 13 10 8 7 7 5 3 5 4 4 7 5 7 22 28 20 17 17 13 15 15 7 7 14 12 5 3 6 11 3 -7 -5 4 14 15 9 11 8 11 28 21 -6 -14 9 36 23 6 18 13 -7 -7 -1 6 5 5 18 14 2 6 10 8 11 17 16 -1 -1 14 5 -4
12 17 18 21 20 16 21 20 14 17 14 10 17 21 17 17 15 15 17 14 11 8 7 9 7 3 7 6 -1 4 10 5 6 16 20 18 18 15 11 16 18 12 14 18 15 8 6 10 8 -1 -8 -6 14 24 10 6 9 6 14 31 26 -8 -25 2 20 7 2 8 11 4 -9 -2 10 9 16 18 6 -0 4 18 21 17 31 31 17 19 11 -1
15 17 23 29 24 18 17 12 15 24 20 18 25 22 18 19 15 15 18 14 11 10 7 9 10 6 8 13 3 -10 -6 6 -0 -4 11 22 24 24 19 17 20 20 14 14 21 21 9 7 11 9 0 -8 -4 9 12 11 12 10 8 12 28 24 -10 -23 -1 19 20 9 13 22 7 -6 -11 -12 3 12 6 2 4 28 46 24 15 26 21 15 7 -0
20 22 27 30 25 21 18 16 24 31 25 23 24 19 18 19 15 17 17 12 11 10 8 9 12 12 7 8 12 -0 -12 -2 -1 -14 -5 10 13 24 36 30 17 13 14 7 8 21 20 10 7 5 3 -2 -6 -2 7 13 13 13 14 8 13 34 37 10 -17 -9 24 29 13 10 14 18 7 -13 -10 -0 5 14 5 6 31 24 4 12 13 5 1 -3
24 25 27 29 26 23 21 23 27 26 23 24 20 16 17 16 13 14 14 13 12 11 13 14 11 16 16 8 11 13 -1 -6 -4 -9 -10 -7 1 15 21 21 20 21 21 11 -3 4 17 17 9 2 4 3 -3 -5 -4 2 12 11 10 14 14 17 30 34 7 -22 -13 12 18 8 1 15 23 13 16 16 5 11 5 -12 5 15 5 10 10 5 11 2
26 25 28 28 24 20 21 25 26 25 25 23 19 15 15 15 13 13 12 13 15 14 16 22 18 16 17 9 5 16 17 6 -2 -2 -10 -28 -13 23 16 -7 9 34 35 22 10 3 5 14 17 9 8 11 9 10 5 -2 10 19 10 8 16 18 16 20 25 11 -13 -20 -3 8 3 4 10 13 27 26 -3 -9 -0 2 18 22 9 10 6 -3 6 6
26 26 29 27 20 17 20 23 24 27 28 27 30 28 21 15 13 15 15 13 15 16 15 20 24 30 39 28 8 11 22 18 5 5 6 -22 -33 11 32 1 -12 10 22 14 7 7 2 5 19 19 12 10 9 14 16 5 6 18 22 16 12 20 23 11 13 25 16 -4 -11 -7 -2 -0 -5 -5 12 19 5 -4 -7 -6 13 19 5 7 11 4 -1 -6
23 25 26 25 22 21 21 20 19 21 22 22 30 37 32 23 17 20 24 20 17 19 25 21 -1 5 48 56 33 32 36 28 11 -0 10 5 -27 -22 17 27 5 -7 12 26 11 -2 -6 -8 4 18 22 21 8 -3 -0 5 8 10 13 16 14 17 26 17 6 12 20 23 17 4 4 7 -3 -10 -7 -1 11 23 13 -2 0 0 -6 1 10 10 5 -10
21 24 22 19 20 21 20 18 14 14 15 12 16 29 35 31 24 25 27 26 19 10 23 32 -6 -27 7 12 -9 5 28 36 34 17 15 18 -0 -19 -19 2 20 9 14 43 33 -1 -11 -10 -10 -6 5 19 18 2 -7 -11 -5 5 8 12 13 9 13 19 21 17 13 19 22 13 9 11 8 5 -5 -22 -14 13 23 17 13 4 3 19 22 9 9 14
23 25 25 22 22 22 21 21 22 23 25 20 15 18 25 27 30 33 28 21 23 18 17 27 11 -8 11 21 5 -3 3 18 24 18 20 11 1 6 -15 -36 -8 10 8 30 33 6 -5 -2 -1 -6 -13 -7 7 21 26 7 -15 -13 -2 10 15 2 -6 8 25 26 14 8 11 17 20 16 8 9 7 -10 -20 -13 -6 -2 8 16 14 17 19 4 0 18
27 25 27 31 31 25 25 29 28 26 29 30 23 16 15 15 19 35 41 23 17 27 27 21 15 5 6 25 36 17 -0 9 10 3 15 5 -20 -2 8 -18 -24 -11 9 33 25 2 3 6 7 10 4 -1 2 10 26 34 21 -3 -24 -18 9 16 3 0 13 26 26 15 6 11 24 30 27 21 17 15 10 4 -2 -15 -19 -2 9 5 7 9 2 6
28 24 21 28 35 32 30 31 24 16 21 29 30 24 19 11 -1 8 36 38 19 20 27 19 14 20 19 17 19 11 -1 10 21 14 20 23 4 -6 0 0 -16 -39 -16 39 45 16 10 12 5 3 5 10 9 -4 -2 17 28 16 -6 -11 6 17 7 -6 -5 11 22 20 14 11 8 11 20 20 14 16 22 23 27 20 -7 -16 -1 6 8 13 10 4
Height
5895 5894 5894 5893 5893 5892 5892 5891 5891 5890 5890 5889 5889 5889 5889 5888 5888 5888 5887 5887 5887 5887 5888 5888 5889 5889 5890 5890 5890 5890 5890 5891 5891 5892 5893 5893 5894 5895 5895 5895 5896 5896 5897 5898 5898 5898 5899 5901 5904 5904 5905 5906 5907 5907 5907 5907 5906 5906 5906 5907 5906 5907 5906 5906 5908 5908 5907 5906 5906 5906 5905 5905 5905 5905 5904 5904 5904 5904 5904 5903 5903 5903 5903 5903 5903 5903 5904 5904
5895 5894 5893 5893 5892 5892 5891 5890 5890 5889 5889 5888 5888 5888 5888 5887 5887 5887 5886 5886 5886 5886 5886 5887 5887 5888 5889 5889 5889 5890 5890 5890 5891 5892 5892 5893 5894 5894 5894 5894 5895 5896 5897 5897 5898 5898 5898 5900 5902 5904 5905 5906 5906 5906 5907 5907 5907 5906 5907 5908 5907 5907 5907 5907 5908 5908 5907 5907 5906 5906 5905 5905 5905 5905 5905 5904 5904 5904 5904 5904 5904 5903 5902 5903 5903 5903 5904 5904
5894 5893 5893 5892 5892 5891 5890 5890 5889 5888 5888 5887 5887 5887 5887 5886 5886 5886 5885 5885 5885 5885 5885 5885 5886 5886 5887 5888 5888 5888 5889 5890 5890 5892 5892 5892 5893 5893 5893 5894 5895 5896 5896 5897 5897 5898 5898 5899 5901 5902 5904 5904 5904 5905 5906 5907 5907 5907 5908 5909 5908 5907 5908 5908 5908 5908 5907 5907 5906 5906 5906 5906 5905 5905 5905 5905 5905 5904 5904 5904 5903 5903 5902 5902 5903 5903 5904 5904
5893 5892 5892 5891 5891 5890 5890 5889 5888 5888 5887 5886 5886 5886 5886 5885 5885 5885 5885 5884 5884 5884 5884 5884 5884 5884 5885 5886 5886 5887 5888 5889 5890 5891 5891 5891 5892 5893 5893 5893 5894 5895 5896 5896 5897 5897 5898 5898 5899 5901 5902 5902 5903 5904 5905 5907 5908 5908 5908 5909 5908 5908 5908 5909 5909 5908 5908 5907 5906 5906 5906 5906 5906 5905 5905 5905 5905 5904 5904 5904 5904 5903 5903 5903 5903 5903 5904 5904
5892 5892 5891 5891 5890 5889 5889 5888 5887 5887 5886 5886 5885 5885 5884 5884 5884 5884 5884 5883 5883 5883 5883 5883 5883 5883 5883 5884 5885 5886 5886 5888 5890 5890 5890 5891 5891 5892 5892 5893 5893 5894 5894 5895 5896 5897 5897 5898 5899 5900 5901 5902 5902 5903 5905 5906 5907 5909 5909 5909 5909 5909 5908 5909 5909 5908 5908 5907 5906 5907 5906 5906 5906 5906 5905 5905 5905 5904 5904 5904 5904 5903 5903 5903 5903 5903 5904 5904
5892 5891 5890 5890 5889 5888 5888 5887 5887 5886 5886 5885 5884 5884 5883 5883 5883 5883 5882 5882 5882 5882 5882 5882 5882 5882 5882 5882 5883 5884 5885 5887 5889 5889 5889 5890 5891 5891 5892 5892 5892 5893 5893 5894 5896 5897 5897 5898 5899 5900 5901 5901 5902 5903 5904 5906 5908 5910 5910 5910 5909 5909 5909 5909 5909 5909 5908 5907 5907 5907 5907 5906 5906 5906 5906 5906 5905 5904 5904 5904 5904 5903 5903 5904 5903 5903 5904 5904
5891 5890 5889 5889 5888 5887 5887 5886 5886 5885 5885 5884 5884 5883 5883 5882 5882 5882 5881 5881 5881 5881 5881 5880 5881 5881 5880 5881 5881 5882 5883 5885 5887 5888 5889 5889 5889 5890 5890 5891 5892 5892 5893 5894 5895 5896 5897 5898 5899 5900 5900 5901 5902 5902 5904 5907 5911 5912 5912 5911 5909 5909 5909 5909 5909 5908 5908 5908 5906 5906 5907 5906 5906 5906 5906 5906 5905 5904 5905 5904 5904 5904 5904 5904 5904 5903 5904 5904
5890 5889 5888 5888 5887 5886 5886 5885 5884 5884 5884 5883 5883 5882 5882 5881 5881 5881 5880 5880 5880 5880 5880 5879 5879 5879 5879 5879 5879 5880 5881 5883 5887 5887 5887 5887 5888 5889 5889 5890 5890 5891 5892 5893 5894 5895 5896 5897 5898 5899 5900 5901 5902 5902 5903 5906 5909 5912 5915 5913 5911 5910 5909 5909 5909 5908 5908 5908 5906 5906 5907 5906 5906 5906 5906 5906 5905 5905 5905 5905 5904 5904 5904 5904 5904 5904 5904 5904
5889 5888 5887 5887 5886 5885 5885 5884 5883 5883 5882 5882 5882 5881 5881 5881 5880 5880 5879 5879 5879 5879 5878 5878 5878 5878 5878 5878 5878 5879 5880 5882 5885 5885 5884 5886 5887 5887 5888 5889 5889 5890 5891 5892 5893 5894 5895 5896 5897 5898 5900 5900 5900 5901 5901 5904 5908 5910 5913 5914 5913 5912 5910 5909 5909 5908 5909 5908 5906 5907 5907 5906 5907 5906 5906 5906 5905 5905 5905 5905 5904 5904 5904 5904 5904 5904 5904 5904
5888 5887 5886 5886 5885 5884 5884 5883 5882 5882 5881 5881 5880 5880 5880 5879 5879 5879 5879 5878 5878 5878 5877 5877 5877 5877 5877 5877 5877 5878 5878 5879 5882 5882 5882 5884 5885 5886 5886 5887 5888 5889 5890 5891 5891 5893 5894 5895 5896 5897 5898 5898 5898 5899 5900 5903 5907 5910 5913 5914 5914 5913 5910 5909 5910 5910 5911 5910 5907 5906 5906 5906 5906 5906 5905 5906 5905 5905 5905 5905 5905 5904 5904 5904 5905 5904 5904 5905
5886 5886 5885 5884 5884 5883 5882 5882 5881 5881 5880 5880 5879 5879 5879 5878 5878 5878 5877 5877 5877 5877 5876 5876 5876 5876 5876 5876 5876 5876 5876 5877 5879 5879 5880 5881 5883 5884 5885 5886 5887 5887 5888 5889 5890 5892 5893 5894 5895 5895 5895 5897 5898 5899 5899 5901 5903 5907 5910 5913 5914 5913 5910 5909 5910 5911 5912 5913 5909 5906 5906 5906 5906 5906 5905 5906 5905 5905 5905 5905 5905 5905 5905 5905 5905 5905 5905 5905
5885 5884 5884 5883 5882 5882 5881 5880 5880 5879 5879 5878 5878 5877 5877 5877 5877 5876 5876 5876 5876 5875 5875 5875 5875 5875 5874 5874 5875 5875 5874 5875 5876 5877 5878 5879 5881 5882 5883 5884 5885 5886 5887 5888 5889 5890 5891 5893 5893 5893 5895 5896 5898 5899 5901 5901 5900 5902 5905 5908 5911 5910 5908 5907 5909 5909 5911 5913 5910 5906 5906 5905 5906 5906 5905 5905 5905 5905 5905 5905 5905 5905 5905 5905 5905 5905 5905 5905
5883 5882 5882 5881 5881 5880 5880 5879 5878 5878 5877 5877 5876 5876 5876 5875 5875 5875 5874 5874 5874 5874 5874 5874 5874 5874 5873 5873 5874 5873 5873 5874 5874 5875 5876 5877 5879 5880 5882 5882 5883 5884 5885 5886 5887 5888 5889 5890 5891 5892 5894 5895 5896 5898 5900 5900 5900 5901 5902 5905 5907 5907 5908 5909 5908 5908 5910 5911 5908 5905 5906 5905 5905 5905 5905 5905 5905 5905 5905 5905 5905 5905 5905 5905 5906 5906 5905 5905
5881 5880 5880 5879 5879 5878 5878 5877 5877 5876 5876 5875 5875 5874 5874 5874 5873 5873 5873 5873 5872 5872 5872 5872 5872 5872 5872 5871 5872 5872 5871 5872 5872 5873 5874 5875 5876 5878 5880 5881 5881 5882 5883 5884 5885 5886 5887 5888 5889 5890 5892 5894 5895 5896 5896 5897 5898 5900 5902 5903 5904 5905 5909 5910 5908 5908 5910 5908 5905 5905 5905 5905 5905 5905 5904 5905 5905 5905 5905 5905 5905 5906 5906 5906 5906 5906 5906 5906
5878 5878 5877 5877 5877 5876 5876 5875 5875 5874 5874 5874 5873 5873 5872 5872 5872 5871 5871 5871 5871 5870 5870 5870 5870 5870 5870 5870 5870 5870 5870 5870 5870 5871 5872 5873 5874 5875 5877 5878 5879 5880 5881 5882 5883 5884 5885 5886 5887 5888 5891 5893 5894 5894 5894 5895 5898 5900 5901 5903 5904 5905 5908 5909 5907 5907 5908 5906 5904 5905 5905 5905 5905 5905 5904 5905 5905 5905 5905 5905 5905 5906 5906 5906 5906 5906 5906 5907
5876 5875 5875 5875 5874 5874 5874 5873 5873 5872 5872 5871 5871 5871 5871 5870 5870 5870 5869 5869 5869 5869 5868 5868 5868 5868 5868 5868 5868 5868 5869 5868 5868 5869 5870 5871 5872 5873 5874 5875 5877 5878 5879 5880 5881 5882 5883 5884 5885 5887 5889 5890 5891 5893 5894 5895 5897 5898 5900 5902 5904 5905 5908 5908 5906 5905 5905 5904 5904 5904 5904 5904 5904 5904 5904 5904 5905 5905 5905 5905 5905 5906 5906 5906 5906 5906 5906 5907
5873 5873 5872 5872 5872 5872 5871 5871 5870 5870 5869 5869 5869 5868 5868 5868 5868 5867 5867 5867 5867 5867 5866 5866 5866 5866 5866 5867 5866 5866 5867 5867 5866 5867 5868 5869 5870 5871 5872 5873 5874 5876 5877 5878 5878 5880 5881 5881 5883 5885 5886 5888 5890 5891 5891 5892 5895 5897 5899 5901 5903 5906 5909 5908 5906 5905 5903 5903 5904 5904 5904 5904 5903 5903 5903 5903 5904 5905 5905 5905 5905 5906 5906 5906 5906 5906 5907 5907
5871 5870 5869 5869 5869 5869 5868 5868 5868 5867 5867 5867 5866 5865 5865 5866 5865 5865 5865 5865 5865 5864 5864 5864 5865 5864 5864 5865 5865 5864 5865 5865 5864 5865 5865 5866 5867 5868 5869 5870 5871 5873 5874 5875 5876 5878 5878 5880 5881 5882 5883 5885 5887 5888 5888 5891 5895 5897 5899 5901 5902 5906 5909 5908 5905 5904 5903 5902 5903 5903 5903 5904 5903 5902 5903 5903 5903 5904 5904 5905 5905 5905 5906 5906 5906 5907 5907 5907
5868 5867 5866 5866 5866 5866 5866 5865 5865 5864 5864 5864 5864 5863 5863 5863 5862 5862 5863 5863 5862 5862 5861 5862 5863 5862 5862 5863 5862 5862 5864 5863 5863 5863 5863 5864 5865 5866 5867 5868 5868 5870 5871 5872 5874 5876 5876 5877 5878 5879 5881 5883 5885 5887 5889 5893 5895 5896 5899 5902 5903 5905 5908 5907 5905 5903 5902 5902 5902 5902 5903 5903 5904 5902 5901 5903 5902 5903 5903 5904 5905 5905 5905 5905 5906 5907 5907 5907
5864 5864 5863 5862 5862 5862 5863 5862 5862 5862 5861 5860 5860 5860 5860 5860 5859 5860 5861 5860 5859 5859 5859 5859 5861 5860 5859 5861 5860 5860 5862 5861 5861 5861 5861 5862 5862 5864 5864 5865 5866 5867 5868 5870 5872 5873 5873 5874 5875 5877 5881 5882 5885 5887 5890 5892 5893 5895 5898 5903 5904 5906 5906 5905 5905 5904 5901 5901 5902 5901 5902 5902 5903 5901 5900 5902 5902 5902 5903 5903 5904 5904 5904 5905 5906 5906 5907 5907
5861 5860 5859 5858 5858 5858 5859 5859 5858 5858 5858 5857 5857 5857 5857 5857 5856 5856 5858 5857 5857 5856 5856 5857 5858 5858 5857 5857 5858 5858 5859 5859 5859 5859 5859 5859 5860 5861 5862 5863 5864 5864 5866 5867 5868 5869 5869 5870 5873 5877 5880 5882 5884 5886 5888 5890 5891 5892 5895 5901 5904 5904 5905 5903 5904 5905 5901 5900 5901 5901 5901 5901 5901 5900 5900 5902 5901 5901 5902 5902 5903 5903 5904 5905 5905 5905 5906 5906
5858 5857 5856 5855 5854 5854 5855 5855 5854 5854 5854 5853 5853 5853 5853 5853 5853 5853 5854 5855 5854 5852 5853 5854 5854 5856 5855 5853 5856 5857 5856 5857 5857 5856 5856 5857 5857 5858 5859 5860 5861 5862 5863 5863 5864 5865 5865 5868 5874 5877 5879 5880 5881 5883 5885 5887 5889 5890 5891 5896 5900 5902 5904 5903 5903 5905 5900 5898 5901 5899 5900 5900 5899 5899 5899 5901 5900 5899 5901 5901 5902 5902 5903 5904 5904 5905 5905 5906
5854 5853 5852 5852 5850 5850 5850 5851 5850 5850 5850 5849 5849 5849 5849 5849 5849 5849 5849 5851 5852 5849 5850 5852 5851 5853 5853 5851 5853 5853 5854 5855 5854 5853 5854 5855 5855 5855 5856 5857 5858 5859 5860 5860 5861 5862 5864 5869 5873 5874 5876 5877 5879 5880 5882 5884 5886 5887 5889 5892 5896 5900 5903 5903 5903 5905 5899 5896 5899 5899 5897 5898 5898 5897 5897 5898 5898 5898 5900 5900 5901 5901 5902 5902 5903 5904 5905 5906
5850 5849 5848 5848 5846 5845 5846 5846 5846 5845 5845 5845 5845 5845 5845 5845 5844 5845 5845 5846 5849 5847 5845 5847 5849 5850 5851 5849 5848 5849 5852 5851 5850 5851 5852 5853 5853 5852 5853 5855 5855 5856 5857 5858 5859 5860 5863 5867 5869 5870 5872 5874 5875 5877 5879 5881 5882 5884 5886 5889 5893 5897 5901 5902 5902 5905 5900 5894 5896 5897 5896 5896 5896 5896 5896 5896 5896 5897 5898 5899 5900 5900 5900 5901 5902 5903 5905 5905
5845 5845 5844 5844 5843 5841 5841 5842 5841 5841 5841 5841 5841 5841 5840 5841 5840 5841 5841 5841 5845 5845 5841 5842 5845 5847 5847 5846 5845 5847 5847 5846 5847 5849 5848 5850 5850 5849 5851 5852 5852 5853 5854 5855 5856 5857 5860 5863 5864 5865 5868 5870 5872 5874 5876 5878 5880 5882 5883 5886 5890 5895 5899 5900 5900 5903 5900 5894 5894 5896 5894 5894 5895 5895 5895 5895 5895 5896 5897 5898 5898 5899 5900 5900 5901 5902 5904 5905
5839 5840 5840 5839 5839 5838 5836 5837 5837 5836 5836 5837 5837 5837 5836 5836 5836 5836 5836 5836 5838 5841 5839 5839 5841 5843 5844 5843 5843 5843 5841 5843 5846 5846 5844 5847 5848 5847 5848 5848 5849 5851 5852 5852 5853 5854 5857 5859 5860 5862 5864 5866 5867 5870 5873 5876 5877 5879 5881 5884 5887 5891 5895 5897 5899 5901 5899 5894 5894 5894 5892 5892 5893 5893 5894 5894 5894 5894 5895 5896 5897 5898 5898 5899 5901 5902 5903 5905
5834 5834 5835 5834 5834 5834 5832 5831 5832 5832 5832 5833 5832 5832 5832 5832 5832 5832 5832 5831 5832 5834 5835 5837 5838 5839 5840 5839 5839 5839 5838 5840 5843 5842 5841 5844 5845 5844 5844 5845 5847 5848 5849 5849 5849 5851 5854 5856 5856 5858 5860 5862 5863 5866 5871 5873 5874 5876 5880 5884 5885 5887 5891 5894 5897 5898 5897 5895 5894 5891 5889 5889 5889 5890 5892 5892 5892 5892 5892 5894 5895 5896 5897 5898 5899 5901 5902 5903
5828 5828 5829 5829 5828 5829 5828 5826 5827 5827 5827 5829 5828 5828 5828 5828 5828 5828 5828 5827 5827 5828 5830 5833 5834 5833 5834 5834 5836 5837 5835 5837 5839 5839 5839 5840 5841 5841 5840 5842 5844 5845 5846 5846 5846 5849 5852 5853 5854 5855 5856 5858 5860 5864 5868 5870 5871 5874 5879 5882 5884 5885 5887 5890 5894 5895 5896 5895 5893 5891 5888 5886 5886 5888 5889 5889 5889 5889 5889 5891 5892 5893 5895 5896 5898 5899 5899 5900
5822 5822 5823 5823 5822 5823 5824 5822 5821 5821 5822 5823 5823 5823 5823 5823 5823 5824 5823 5822 5824 5825 5825 5827 5828 5829 5829 5830 5832 5833 5832 5834 5835 5833 5834 5836 5838 5838 5838 5840 5841 5842 5843 5842 5844 5846 5848 5850 5851 5851 5853 5856 5858 5861 5864 5866 5868 5873 5876 5878 5882 5884 5885 5887 5888 5891 5893 5891 5890 5892 5889 5884 5884 5885 5886 5885 5886 5888 5888 5889 5890 5891 5893 5894 5896 5897 5897 5898
5816 5815 5816 5817 5816 5816 5817 5817 5816 5816 5815 5817 5817 5818 5818 5818 5819 5818 5816 5818 5822 5822 5819 5820 5823 5825 5826 5825 5828 5828 5828 5831 5831 5827 5830 5834 5834 5834 5835 5836 5836 5837 5838 5839 5840 5843 5844 5846 5847 5848 5850 5853 5855 5857 5859 5862 5866 5870 5873 5875 5878 5881 5884 5885 5885 5887 5887 5883 5885 5890 5888 5883 5881 5882 5883 5883 5884 5887 5888 5888 5889 5889 5890 5892 5893 5894 5896 5897
5809 5808 5808 5809 5809 5810 5810 5809 5811 5811 5809 5810 5810 5811 5812 5813 5813 5811 5811 5815 5818 5816 5814 5815 5818 5819 5821 5822 5823 5823 5823 5826 5825 5822 5826 5831 5830 5830 5831 5832 5833 5834 5834 5835 5837 5840 5841 5842 5843 5845 5847 5849 5851 5852 5855 5858 5862 5866 5868 5871 5874 5876 5879 5881 5882 5882 5879 5876 5881 5886 5888 5884 5879 5879 5882 5881 5882 5885 5886 5886 5887 5887 5888 5889 5890 5893 5895 5896
5801 5801 5800 5801 5802 5803 5802 5801 5804 5804 5802 5803 5803 5803 5805 5806 5805 5805 5809 5812 5812 5811 5810 5809 5811 5812 5815 5817 5817 5818 5819 5821 5820 5819 5822 5826 5825 5826 5828 5829 5830 5830 5831 5833 5835 5837 5838 5839 5841 5841 5844 5846 5846 5848 5851 5853 5856 5860 5863 5866 5869 5871 5873 5874 5875 5876 5874 5874 5879 5883 5885 5882 5878 5880 5883 5881 5881 5883 5883 5884 5884 5885 5886 5886 5888 5892 5893 5894
5792 5793 5792 5792 5793 5794 5794 5794 5795 5795 5795 5796 5795 5796 5797 5796 5797 5802 5806 5807 5806 5808 5806 5802 5804 5805 5808 5812 5813 5813 5814 5815 5815 5814 5818 5820 5820 5822 5824 5825 5826 5826 5828 5830 5831 5833 5833 5835 5837 5837 5839 5842 5843 5844 5847 5848 5850 5854 5858 5860 5862 5865 5867 5868 5869 5872 5873 5874 5877 5880 5881 5879 5878 5880 5881 5880 5880 5880 5881 5882 5882 5882 5884 5884 5887 5890 5891 5891
5783 5783 5783 5783 5783 5785 5785 5785 5786 5786 5787 5787 5786 5788 5787 5787 5793 5798 5799 5800 5802 5803 5800 5798 5800 5800 5800 5805 5807 5808 5808 5809 5810 5810 5812 5814 5815 5816 5818 5820 5822 5823 5825 5826 5825 5828 5829 5829 5832 5834 5835 5838 5840 5842 5844 5846 5848 5851 5854 5856 5857 5859 5861 5863 5866 5869 5872 5873 5875 5876 5874 5873 5877 5881 5881 5881 5880 5878 5878 5880 5880 5880 5881 5882 5884 5887 5888 5889
5773 5773 5773 5773 5773 5774 5776 5776 5776 5777 5777 5778 5778 5778 5778 5782 5789 5791 5791 5793 5795 5796 5795 5794 5795 5795 5794 5796 5799 5803 5803 5802 5804 5805 5805 5807 5810 5811 5812 5816 5818 5819 5821 5821 5821 5824 5825 5826 5829 5832 5833 5834 5837 5839 5841 5843 5845 5847 5850 5851 5852 5855 5858 5861 5865 5868 5871 5870 5870 5871 5870 5870 5874 5877 5879 5880 5879 5877 5877 5877 5878 5877 5878 5880 5881 5883 5885 5887
5763 5763 5763 5763 5763 5764 5764 5765 5765 5765 5767 5767 5767 5768 5772 5777 5781 5782 5783 5785 5786 5789 5790 5788 5789 5789 5790 5790 5791 5796 5799 5798 5799 5799 5799 5801 5804 5806 5807 5810 5813 5815 5816 5817 5819 5821 5822 5823 5825 5828 5830 5831 5832 5835 5836 5838 5841 5844 5845 5845 5848 5854 5856 5858 5863 5866 5867 5866 5865 5867 5869 5871 5872 5872 5874 5876 5876 5876 5875 5876 5876 5875 5876 5878 5878 5879 5881 5884
5752 5753 5751 5750 5753 5753 5753 5754 5754 5753 5755 5755 5755 5761 5767 5769 5771 5772 5774 5777 5778 5779 5780 5781 5782 5782 5783 5785 5785 5788 5792 5794 5794 5793 5793 5794 5796 5800 5803 5805 5807 5810 5812 5814 5816 5818 5819 5821 5822 5822 5825 5827 5828 5830 5832 5834 5837 5840 5840 5842 5848 5852 5851 5854 5858 5860 5860 5859 5861 5865 5866 5868 5870 5869 5871 5872 5873 5873 5873 5874 5876 5874 5874 5877 5876 5875 5878 5881
5739 5741 5738 5737 5741 5741 5740 5742 5741 5741 5742 5742 5745 5754 5757 5758 5760 5763 5765 5766 5768 5769 5769 5771 5774 5775 5776 5778 5780 5783 5784 5786 5788 5789 5788 5789 5790 5794 5798 5800 5802 5804 5808 5811 5812 5814 5815 5818 5819 5819 5820 5823 5824 5825 5827 5830 5833 5835 5837 5841 5845 5845 5844 5847 5851 5853 5854 5854 5857 5861 5862 5863 5866 5869 5870 5870 5871 5871 5870 5871 5873 5873 5873 5875 5875 5874 5874 5878
5726 5728 5725 5723 5727 5727 5726 5728 5728 5728 5728 5729 5736 5743 5745 5747 5750 5752 5754 5756 5758 5758 5759 5762 5765 5767 5769 5770 5774 5778 5778 5778 5782 5783 5783 5785 5785 5787 5791 5795 5798 5799 5802 5806 5807 5809 5811 5813 5816 5817 5817 5819 5819 5819 5823 5827 5828 5830 5833 5836 5838 5839 5839 5843 5846 5847 5849 5851 5854 5857 5857 5859 5862 5866 5869 5870 5870 5869 5868 5868 5870 5872 5873 5874 5875 5873 5871 5874
5711 5714 5711 5709 5711 5710 5712 5714 5713 5713 5715 5718 5726 5730 5732 5736 5737 5739 5743 5745 5747 5748 5750 5754 5755 5757 5761 5763 5766 5771 5774 5774 5776 5776 5777 5780 5781 5782 5785 5789 5793 5794 5795 5798 5802 5806 5806 5806 5811 5815 5815 5814 5811 5812 5819 5823 5823 5825 5827 5828 5831 5835 5836 5839 5842 5843 5844 5846 5850 5852 5852 5855 5859 5862 5866 5869 5869 5866 5865 5867 5866 5869 5872 5872 5875 5876 5872 5873
5695 5697 5696 5695 5694 5693 5696 5699 5699 5700 5701 5705 5712 5715 5718 5721 5723 5727 5731 5733 5735 5737 5739 5742 5745 5747 5751 5755 5757 5763 5768 5770 5771 5770 5770 5773 5775 5778 5779 5782 5786 5790 5791 5791 5794 5800 5802 5801 5804 5809 5811 5809 5807 5809 5814 5817 5819 5820 5822 5824 5827 5831 5833 5835 5837 5839 5840 5840 5844 5847 5849 5852 5857 5860 5861 5865 5866 5862 5862 5865 5864 5864 5867 5869 5872 5875 5872 5873
5677 5680 5680 5678 5676 5676 5678 5682 5685 5686 5685 5690 5697 5700 5703 5707 5709 5714 5719 5720 5722 5726 5727 5729 5733 5737 5740 5745 5749 5753 5758 5761 5764 5767 5766 5766 5768 5771 5775 5778 5781 5785 5786 5786 5787 5792 5798 5798 5798 5802 5805 5806 5808 5808 5808 5810 5814 5817 5818 5820 5823 5825 5828 5831 5832 5835 5836 5835 5839 5843 5843 5847 5854 5857 5858 5861 5863 5861 5859 5861 5862 5861 5862 5864 5868 5870 5869 5871
5659 5664 5666 5662 5659 5660 5660 5664 5671 5671 5670 5676 5682 5684 5689 5693 5696 5701 5705 5707 5710 5713 5715 5717 5723 5726 5729 5736 5740 5741 5745 5749 5754 5760 5763 5763 5764 5765 5770 5774 5776 5778 5781 5782 5783 5785 5790 5793 5793 5795 5799 5802 5806 5807 5805 5805 5808 5810 5812 5815 5817 5818 5821 5825 5829 5832 5832 5832 5837 5839 5836 5839 5848 5852 5854 5856 5858 5858 5857 5856 5858 5859 5860 5862 5865 5867 5867 5868
5643 5647 5652 5648 5643 5643 5644 5648 5656 5656 5656 5662 5665 5668 5674 5678 5682 5687 5689 5693 5697 5700 5702 5706 5712 5716 5719 5724 5728 5730 5734 5738 5743 5749 5754 5759 5762 5762 5765 5768 5769 5771 5774 5778 5780 5779 5781 5785 5788 5790 5792 5795 5799 5802 5800 5799 5801 5803 5807 5810 5811 5814 5818 5821 5825 5829 5828 5829 5833 5834 5831 5835 5843 5847 5850 5852 5853 5855 5856 5855 5855 5857 5860 5861 5863 5864 5864 5864
5627 5630 5636 5636 5630 5628 5630 5634 5639 5640 5642 5646 5648 5653 5658 5661 5666 5671 5674 5679 5684 5687 5690 5694 5701 5706 5709 5712 5716 5720 5724 5727 5731 5737 5742 5750 5756 5758 5761 5763 5764 5764 5767 5772 5775 5775 5775 5778 5782 5783 5784 5786 5791 5794 5795 5795 5797 5799 5803 5805 5807 5810 5813 5816 5820 5822 5822 5824 5828 5828 5829 5836 5842 5844 5845 5849 5850 5852 5852 5851 5853 5856 5858 5860 5862 5862 5861 5861
5611 5615 5621 5623 5618 5617 5619 5621 5624 5626 5628 5629 5631 5636 5641 5643 5648 5654 5658 5664 5669 5674 5678 5683 5689 5693 5696 5700 5703 5708 5715 5719 5722 5726 5732 5740 5746 5749 5753 5759 5760 5757 5759 5765 5768 5769 5771 5772 5774 5776 5779 5782 5786 5790 5793 5794 5794 5796 5799 5801 5803 5806 5809 5812 5814 5814 5816 5820 5822 5822 5827 5834 5839 5841 5842 5844 5846 5848 5849 5847 5849 5853 5855 5857 5859 5859 5858 5858
5597 5601 5607 5608 5606 5607 5609 5609 5612 5615 5615 5614 5616 5622 5627 5631 5636 5642 5645 5648 5653 5658 5661 5668 5676 5680 5684 5690 5692 5696 5704 5711 5714 5718 5724 5730 5736 5741 5746 5752 5754 5750 5751 5757 5760 5762 5765 5766 5767 5770 5774 5778 5782 5786 5790 5792 5792 5793 5795 5797 5798 5801 5805 5807 5808 5809 5813 5815 5815 5817 5823 5827 5831 5835 5839 5841 5842 5845 5847 5844 5844 5849 5851 5853 5856 5856 5855 5854
5586 5590 5594 5593 5593 5597 5599 5600 5601 5602 5603 5603 5604 5609 5615 5620 5625 5631 5635 5637 5639 5642 5644 5651 5659 5664 5670 5677 5681 5685 5692 5699 5705 5711 5717 5721 5726 5733 5740 5744 5747 5746 5746 5750 5753 5755 5757 5759 5762 5765 5768 5772 5776 5779 5784 5787 5789 5790 5792 5794 5794 5796 5799 5802 5803 5805 5808 5809 5811 5815 5820 5821 5824 5829 5833 5835 5838 5842 5843 5840 5840 5844 5847 5849 5850 5851 5851 5851
5579 5580 5583 5582 5582 5585 5588 5590 5592 5592 5594 5596 5596 5600 5604 5608 5613 5618 5624 5628 5629 5630 5632 5634 5637 5640 5646 5654 5663 5671 5679 5686 5694 5701 5709 5714 5717 5722 5728 5733 5739 5741 5739 5740 5745 5748 5749 5752 5757 5760 5763 5766 5770 5773 5776 5781 5784 5787 5790 5792 5793 5793 5794 5796 5799 5802 5804 5805 5808 5812 5814 5815 5818 5823 5827 5829 5831 5834 5837 5836 5836 5838 5841 5844 5845 5844 5845 5846
5572 5571 5573 5574 5575 5577 5578 5582 5584 5585 5588 5589 5590 5593 5596 5600 5604 5608 5614 5617 5619 5624 5624 5621 5623 5628 5633 5641 5648 5653 5657 5663 5670 5679 5690 5698 5704 5711 5717 5722 5729 5734 5731 5731 5736 5739 5742 5747 5751 5755 5758 5761 5764 5768 5771 5773 5776 5779 5783 5786 5788 5790 5792 5793 5793 5796 5799 5802 5804 5807 5807 5809 5812 5817 5821 5824 5825 5827 5830 5831 5833 5834 5835 5838 5840 5840 5840 5841
5566 5565 5566 5566 5569 5571 5572 5574 5577 5579 5581 5582 5583 5586 5590 5594 5596 5600 5604 5606 5611 5618 5617 5614 5620 5626 5629 5635 5636 5634 5639 5645 5653 5663 5672 5680 5688 5697 5705 5710 5717 5724 5724 5724 5728 5733 5737 5742 5746 5750 5751 5754 5760 5765 5767 5769 5771 5772 5774 5776 5780 5784 5789 5791 5790 5791 5794 5797 5800 5803 5802 5803 5808 5812 5815 5817 5818 5821 5823 5826 5829 5831 5831 5833 5835 5836 5837 5837
5560 5561 5561 5560 5563 5566 5567 5568 5571 5572 5574 5576 5577 5579 5582 5586 5588 5590 5592 5596 5605 5612 5609 5609 5618 5620 5622 5626 5624 5625 5632 5639 5646 5657 5663 5668 5675 5683 5689 5697 5706 5714 5718 5720 5724 5727 5731 5736 5740 5743 5745 5749 5755 5760 5762 5765 5764 5763 5765 5770 5774 5778 5783 5786 5786 5787 5790 5792 5794 5796 5797 5800 5805 5808 5810 5811 5812 5815 5818 5820 5823 5826 5828 5830 5831 5831 5833 5835